Weather History for Minot, ND

Change the Weather History Date:

Thursday, March 8, 2012

  Actual Average Record
Temperature  
Mean Temperature 26 °F 24 °F  
Max Temperature 35 °F 33 °F 60 °F (1977)
Min Temperature 17 °F 16 °F -19 °F (1951)
Degree Days  
Heating Degree Days 39 41  
Month to date heating degree days 312 336  
Since 1 July heating degree days 5731 6912  
Cooling Degree Days 0 0  
Month to date cooling degree days 0 0  
Year to date cooling degree days 0 0  
Moisture  
Dew Point 17 °F    
Average Humidity 64    
Maximum Humidity 84    
Minimum Humidity 43    
Precipitation  
Precipitation T in 0.02 in 0.32 in (1979)
Month to date precipitation 0.07 0.15  
Year to date precipitation 0.30 1.06  
Sea Level Pressure  
Sea Level Pressure 30.25 in    
Wind  
Wind Speed 14 mph (WNW)    
Max Wind Speed 26 mph    
Max Gust Speed 35 mph    
Visibility 10 miles    
Events      
T = Trace of Precipitation, MM = Missing Value Source: NWS Daily Summary

Daily Weather History Graph

Daily Weather History Graph

Search for Another Location

Airport:

Trip Planner

Search our weather history database for the weather conditions in past years. The results will help you decide how hot, cold, wet, or windy it might be!

Date:

Astronomy

Mar. 08, 2012 Rise Set
Actual Time 7:11 AM CST 6:40 PM CST
Civil Twilight 6:40 AM CST 7:11 PM CST
Nautical Twilight 6:04 AM CST 7:48 PM CST
Astronomical Twilight 5:27 AM CST 8:24 PM CST
Moon 7:39 PM CST (3/8) 6:51 AM CST (3/8)
Length of Visible Light 12h 31m
Length of Day
11h 29m
Full, 100% of the Moon is Illuminated
Mar 8
Full
Mar 14
Last Quarter
Mar 22
New
Mar 30
First Quarter
Apr 6
Full

Hourly Weather History & Observations

Time (CST) Temp. Windchill Dew Point Humidity Pressure Visibility Wind Dir Wind Speed Gust Speed Precip Events Conditions
12:54 AM 24.1 °F 10.1 °F 18.0 °F 77% 30.11 in 10.0 mi West 18.4 mph - N/A   Clear
1:54 AM 24.8 °F 11.5 °F 17.6 °F 74% 30.04 in 10.0 mi WNW 17.3 mph - N/A   Clear
2:54 AM 21.9 °F 7.8 °F 16.0 °F 78% 30.14 in 10.0 mi West 17.3 mph - N/A   Clear
3:54 AM 21.0 °F 9.3 °F 16.0 °F 81% 30.14 in 10.0 mi West 11.5 mph - N/A   Clear
4:54 AM 21.0 °F 8.6 °F 15.1 °F 78% 30.14 in 10.0 mi WSW 12.7 mph - N/A   Clear
5:54 AM 21.0 °F 8.6 °F 15.1 °F 78% 30.16 in 10.0 mi WSW 12.7 mph - N/A   Clear
6:54 AM 21.9 °F 8.7 °F 17.1 °F 82% 30.14 in 10.0 mi SW 15.0 mph - N/A   Clear
7:54 AM 25.0 °F 11.3 °F 18.0 °F 75% 30.11 in 10.0 mi WSW 18.4 mph 24.2 mph N/A   Clear
8:54 AM 30.0 °F 17.5 °F 19.9 °F 66% 30.11 in 10.0 mi WSW 19.6 mph 27.6 mph N/A   Mostly Cloudy
9:50 AM 32.0 °F 20.5 °F 23.0 °F 69% 30.09 in 10.0 mi West 18.4 mph 27.6 mph 0.00 in   Overcast
9:54 AM 33.1 °F 22.2 °F 24.1 °F 70% 30.16 in 10.0 mi West 17.3 mph - 0.00 in   Mostly Cloudy
10:05 AM 33.8 °F 22.8 °F 24.8 °F 70% 30.10 in 10.0 mi WNW 18.4 mph 29.9 mph N/A   Mostly Cloudy
10:54 AM 34.0 °F 22.1 °F 26.1 °F 73% 30.19 in 10.0 mi WNW 21.9 mph 28.8 mph N/A   Overcast
11:52 AM 33.8 °F 21.6 °F 21.2 °F 60% 30.16 in 10.0 mi NW 23.0 mph 29.9 mph N/A   Overcast
11:54 AM 34.0 °F 21.5 °F 21.9 °F 61% 30.23 in 10.0 mi NW 24.2 mph 28.8 mph N/A   Mostly Cloudy
12:19 PM 33.8 °F 21.9 °F 21.2 °F 60% 30.17 in 10.0 mi WNW 21.9 mph 31.1 mph N/A   Mostly Cloudy
12:54 PM 34.0 °F 22.1 °F 21.0 °F 59% 30.27 in 10.0 mi NW 21.9 mph 29.9 mph N/A   Mostly Cloudy
1:01 PM 33.8 °F 22.2 °F 19.4 °F 56% 30.20 in 10.0 mi NW 20.7 mph 33.4 mph N/A   Partly Cloudy
1:11 PM 32.0 °F 19.5 °F 21.2 °F 64% 30.20 in 10.0 mi NW 21.9 mph 26.5 mph N/A   Mostly Cloudy
1:54 PM 35.1 °F 24.8 °F 19.0 °F 52% 30.30 in 10.0 mi WNW 17.3 mph 32.2 mph N/A   Mostly Cloudy
2:01 PM 33.8 °F 21.9 °F 19.4 °F 56% 30.23 in 10.0 mi WNW 21.9 mph 34.5 mph N/A   Partly Cloudy
3:54 PM 32.0 °F 21.6 °F 15.1 °F 50% 30.37 in 10.0 mi NW 15.0 mph 25.3 mph N/A   Mostly Cloudy
4:54 PM 30.0 °F 18.7 °F 10.9 °F 45% 30.39 in 10.0 mi NW 16.1 mph 24.2 mph N/A   Clear
5:54 PM 28.0 °F 18.6 °F 12.9 °F 53% 30.43 in 10.0 mi NW 10.4 mph - N/A   Clear
6:54 PM 25.0 °F 14.8 °F 12.0 °F 58% 30.46 in 10.0 mi WNW 10.4 mph - N/A   Clear
7:54 PM 21.9 °F 13.4 °F 12.0 °F 66% 30.48 in 10.0 mi WNW 6.9 mph - N/A   Clear
8:54 PM 18.0 °F 11.1 °F 12.0 °F 78% 30.49 in 10.0 mi North 4.6 mph - N/A   Partly Cloudy
9:54 PM 19.9 °F 13.4 °F 10.0 °F 65% 30.48 in 10.0 mi NNE 4.6 mph - N/A   Overcast
10:54 PM 19.0 °F 12.3 °F 9.0 °F 65% 30.46 in 10.0 mi ENE 4.6 mph - N/A   Mostly Cloudy
11:54 PM 17.1 °F 8.7 °F 7.0 °F 65% 30.47 in 10.0 mi ESE 5.8 mph - N/A   Clear